User: anonymous   Login
Location: Unspecified
(0.0000°N, 0.0000°E)
Time: 01:20:31
(UTC+02:00)
Language:

SeaSat 1 - Orbit

View from above orbital plane
View from above orbital plane
View from above satellite
View from above satellite

Ground track
Ground track

The orbit data is extracted from the following two-line orbital elements,

1 10967U 78064A   17141.72351105 -.00000016 +00000-0 +35695-4 0  9996
2 10967 108.0064 244.1304 0002759 257.5916 102.4920 14.43643711042558
Epoch (UTC): 21 May 2017 17:21:51
Eccentricity: 0.0002759
inclination: 108.0064°
perigee height: 744 km
apogee height: 748 km
right ascension of ascending node: 244.1304°
argument of perigee: 257.5916°
revolutions per day: 14.43643711
mean anomaly at epoch: 102.4920°
orbit number at epoch: 4255

The dashed part of the orbit path shows where the satellite is in the earth's shadow,  

DLR